GW4813 Weather Reports


Display with metric or nautical units.
time (UTC)temp
F
wind
direction
speed
MPH
gust
MPH
rain 1hr
in
rain 24hr
in
rain mn
in
humidity
%
barometer
mb
20260507001012 54 313 0.0 3.0 0.00 0.86 0.42 57 1013.9
20260507000503 54 311 1.0 3.0 0.00 0.86 0.42 56 1013.8
20260507000007 54 330 2.0 4.0 0.00 0.87 0.42 55 1013.7
20260506235505 54 288 0.0 4.0 0.00 0.88 0.42 57 1013.8
20260506235003 54 349 1.0 4.0 0.00 0.89 0.42 56 1013.7
20260506234506 54 322 1.0 6.0 0.00 0.91 0.42 56 1013.7
20260506234006 54 312 1.0 6.0 0.00 0.91 0.42 56 1013.6
20260506233506 54 316 3.0 6.0 0.00 0.92 0.42 55 1013.6
20260506233009 54 350 3.0 5.0 0.00 0.93 0.42 55 1013.7
20260506232505 55 297 1.0 4.0 0.00 0.93 0.42 56 1013.6
20260506232006 55 331 1.0 5.0 0.00 0.93 0.42 55 1013.7
20260506231516 55 283 2.0 5.0 0.00 0.94 0.42 55 1013.7
20260506231008 55 314 1.0 4.0 0.00 0.95 0.42 56 1013.9
20260506230502 55 311 1.0 4.0 0.00 0.97 0.42 56 1013.9
20260506230003 55 302 1.0 5.0 0.00 0.98 0.42 56 1014.0
20260506225502 56 331 3.0 5.0 0.00 0.99 0.42 53 1013.9
20260506225003 56 333 0.0 4.0 0.00 1.00 0.42 56 1014.1
20260506224506 55 264 1.0 5.0 0.00 1.03 0.42 54 1014.1
20260506224007 55 53 1.0 5.0 0.00 1.04 0.42 54 1014.1
20260506223505 55 305 2.0 5.0 0.00 1.07 0.42 53 1014.1
20260506223010 55 320 2.0 5.0 0.00 1.10 0.42 52 1014.2
20260506222504 55 351 1.0 5.0 0.00 1.10 0.42 53 1014.2
20260506222006 55 328 2.0 5.0 0.00 1.11 0.42 54 1014.2
20260506221512 55 323 2.0 5.0 0.00 1.11 0.42 53 1014.2
20260506221004 55 8 2.0 5.0 0.00 1.11 0.42 53 1014.1
20260506220507 55 271 2.0 4.0 0.00 1.12 0.42 53 1014.1
20260506220031 55 290 1.0 4.0 0.00 1.14 0.42 53 1014.2
20260506215507 55 319 2.0 6.0 0.00 1.15 0.42 52 1014.1
20260506215002 55 300 2.0 7.0 0.00 1.15 0.42 51 1014.1
20260506214505 55 311 3.0 7.0 0.00 1.15 0.42 51 1013.9
20260506214003 55 319 2.0 6.0 0.00 1.15 0.42 51 1013.9
20260506213503 55 319 2.0 6.0 0.00 1.15 0.42 53 1013.9
20260506213005 56 286 2.0 6.0 0.00 1.16 0.42 51 1013.8
20260506212504 56 315 2.0 6.0 0.00 1.16 0.42 52 1013.7
20260506212004 56 327 4.0 8.0 0.00 1.16 0.42 49 1013.7
20260506211509 56 309 3.0 8.0 0.00 1.16 0.42 51 1013.7
20260506211007 56 330 3.0 7.0 0.00 1.16 0.42 53 1013.6
20260506210506 56 270 2.0 6.0 0.00 1.16 0.42 54 1013.7
20260506210016 56 339 3.0 6.0 0.00 1.16 0.42 55 1013.6
20260506205511 56 303 3.0 6.0 0.00 1.17 0.42 54 1013.5
20260506205007 56 322 2.0 6.0 0.00 1.17 0.42 56 1013.6
20260506204522 55 288 2.0 5.0 0.00 1.19 0.42 56 1013.6
20260506204010 56 330 3.0 6.0 0.00 1.20 0.42 55 1013.6
20260506203507 56 320 2.0 6.0 0.00 1.21 0.42 53 1013.6
20260506203004 56 317 3.0 6.0 0.00 1.22 0.42 53 1013.5
20260506202503 56 338 2.0 6.0 0.00 1.23 0.42 56 1013.6
20260506202007 56 323 2.0 8.0 0.00 1.24 0.42 54 1013.6
20260506201506 56 297 3.0 9.0 0.00 1.24 0.42 53 1013.6
20260506201004 56 328 3.0 9.0 0.00 1.25 0.42 52 1013.5
20260506200503 56 318 4.0 7.0 0.00 1.27 0.42 53 1013.4
20260506200012 56 315 3.0 7.0 0.00 1.29 0.42 57 1013.4
20260506195506 56 294 2.0 8.0 0.00 1.30 0.42 55 1013.3
20260506195003 56 335 3.0 8.0 0.00 1.30 0.42 55 1013.3
20260506194516 56 360 3.0 7.0 0.00 1.30 0.42 54 1013.2
20260506194008 56 336 3.0 7.0 0.00 1.30 0.42 56 1013.3
20260506193512 56 52 4.0 7.0 0.00 1.30 0.42 57 1013.3
20260506193020 56 325 3.0 9.0 0.00 1.30 0.42 54 1013.3
20260506192511 55 338 4.0 9.0 0.00 1.30 0.42 54 1013.3
20260506192011 56 345 4.0 7.0 0.00 1.30 0.42 55 1013.4
20260506191506 56 38 3.0 7.0 0.00 1.30 0.42 54 1013.3
20260506191005 56 330 3.0 7.0 0.00 1.30 0.42 54 1013.3
20260506190504 56 335 4.0 7.0 0.00 1.30 0.42 53 1013.3
20260506190012 57 310 2.0 6.0 0.00 1.30 0.42 55 1013.4
20260506185505 57 280 1.0 10.0 0.00 1.30 0.42 52 1013.3
20260506185008 57 314 3.0 10.0 0.00 1.30 0.42 53 1013.3
20260506184516 57 331 4.0 11.0 0.00 1.30 0.42 54 1013.3
20260506184013 57 10 4.0 11.0 0.00 1.30 0.42 53 1013.0
20260506183508 58 57 4.0 9.0 0.00 1.30 0.42 53 1013.0
20260506183020 58 343 3.0 8.0 0.00 1.30 0.42 53 1012.9
20260506182507 57 287 2.0 6.0 0.00 1.30 0.42 53 1013.0
20260506182011 57 309 3.0 9.0 0.00 1.30 0.42 55 1013.2
20260506181522 57 335 4.0 9.0 0.00 1.30 0.42 56 1013.2
20260506181010 57 349 5.0 9.0 0.00 1.30 0.42 54 1013.1
20260506180508 57 327 3.0 7.0 0.00 1.30 0.42 55 1013.3
20260506180026 57 44 3.0 9.0 0.00 1.30 0.42 55 1013.4
20260506175506 57 20 6.0 9.0 0.00 1.30 0.42 53 1013.5
20260506175006 56 306 2.0 7.0 0.00 1.30 0.42 57 1013.4
20260506174510 56 322 4.0 7.0 0.00 1.30 0.42 56 1013.4
20260506174004 56 351 3.0 5.0 0.00 1.30 0.42 55 1013.4
20260506173505 56 338 3.0 13.0 0.00 1.30 0.42 56 1013.4
20260506173016 56 15 4.0 13.0 0.00 1.30 0.42 56 1013.5
20260506172506 56 311 2.0 7.0 0.00 1.30 0.42 60 1013.5
20260506172011 56 341 4.0 7.0 0.00 1.30 0.42 58 1013.5
20260506171522 56 322 3.0 6.0 0.00 1.30 0.42 60 1013.5
20260506171009 56 356 3.0 8.0 0.00 1.30 0.42 58 1013.7
20260506170508 56 304 2.0 8.0 0.00 1.30 0.42 60 1013.8
20260506170024 56 302 3.0 9.0 0.00 1.30 0.42 61 1013.6
20260506165514 56 275 3.0 9.0 0.00 1.30 0.42 62 1013.6
20260506165007 56 339 4.0 7.0 0.00 1.30 0.42 62 1013.5
20260506164527 56 273 3.0 10.0 0.00 1.30 0.42 60 1013.4
20260506164005 55 7 2.0 10.0 0.00 1.30 0.42 62 1013.4
20260506163504 55 301 3.0 9.0 0.00 1.30 0.42 61 1013.5
20260506163010 55 345 3.0 8.0 0.00 1.30 0.42 61 1013.7
20260506162505 55 347 4.0 16.0 0.00 1.30 0.42 60 1013.7
20260506162011 56 297 3.0 16.0 0.00 1.30 0.42 64 1013.7
20260506161518 55 215 2.0 7.0 0.00 1.30 0.42 65 1013.7
20260506161008 55 253 4.0 7.0 0.00 1.30 0.42 66 1013.5
20260506160510 55 316 3.0 6.0 0.00 1.30 0.42 66 1013.5
20260506160020 54 311 2.0 6.0 0.00 1.30 0.42 63 1013.6
20260506155510 54 288 3.0 6.0 0.00 1.30 0.42 64 1013.7
20260506155010 54 341 1.0 7.0 0.00 1.30 0.42 64 1013.7
20260506154528 54 289 1.0 7.0 0.00 1.30 0.42 66 1013.7
20260506154011 54 329 3.0 8.0 0.00 1.30 0.42 64 1013.7
20260506153510 54 269 2.0 8.0 0.00 1.30 0.42 66 1013.6
20260506153025 54 254 2.0 6.0 0.00 1.30 0.42 71 1013.4
20260506152510 53 290 1.0 6.0 0.00 1.30 0.42 72 1013.1
20260506152007 52 336 3.0 7.0 0.00 1.30 0.42 70 1013.0
20260506151514 52 19 2.0 7.0 0.00 1.30 0.42 70 1013.0
20260506151009 52 330 3.0 6.0 0.00 1.30 0.42 75 1013.0
20260506150503 52 295 2.0 5.0 0.00 1.30 0.42 72 1012.9
20260506150003 51 312 2.0 7.0 0.00 1.30 0.42 75 1012.7
20260506145503 51 314 3.0 8.0 0.00 1.30 0.42 74 1012.7
20260506145003 50 40 3.0 8.0 0.00 1.30 0.42 73 1013.0
20260506144502 51 330 4.0 6.0 0.00 1.30 0.42 71 1012.9
20260506144003 50 327 3.0 10.0 0.00 1.30 0.42 74 1012.7
20260506143503 50 43 3.0 10.0 0.00 1.30 0.42 74 1012.5
20260506143006 50 302 3.0 6.0 0.00 1.30 0.42 75 1012.4
20260506142503 49 1 2.0 5.0 0.00 1.30 0.42 77 1012.5
20260506142005 49 322 3.0 5.0 0.00 1.30 0.42 77 1012.7
20260506141508 49 352 1.0 4.0 0.00 1.30 0.42 80 1012.7
20260506141006 48 326 2.0 6.0 0.00 1.30 0.42 80 1012.8
20260506140507 48 347 3.0 7.0 0.00 1.30 0.42 81 1012.7
20260506140009 48 318 3.0 7.0 0.00 1.30 0.42 80 1012.7
20260506135506 47 326 3.0 8.0 0.00 1.30 0.42 82 1012.7
20260506135010 47 323 3.0 8.0 0.00 1.30 0.42 82 1012.6
20260506134504 47 323 3.0 7.0 0.00 1.30 0.42 81 1012.5
20260506134003 47 18 2.0 5.0 0.00 1.30 0.42 83 1012.3
20260506133504 47 337 2.0 5.0 0.00 1.30 0.42 84 1012.1
20260506133004 46 7 2.0 6.0 0.00 1.30 0.42 84 1012.2
20260506132503 46 284 2.0 6.0 0.00 1.30 0.42 85 1012.1
20260506132005 46 319 2.0 6.0 0.00 1.30 0.42 86 1012.2
20260506131508 46 323 2.0 6.0 0.00 1.30 0.42 85 1012.2
20260506131004 46 335 2.0 7.0 0.00 1.30 0.42 86 1012.0
20260506130505 46 314 2.0 7.0 0.00 1.30 0.42 86 1012.0
20260506130015 46 335 1.0 5.0 0.00 1.30 0.42 87 1012.1
20260506125504 45 312 2.0 5.0 0.00 1.30 0.42 86 1012.1
20260506125005 45 307 2.0 3.0 0.00 1.30 0.42 87 1011.5
20260506124511 45 328 2.0 4.0 0.00 1.30 0.42 87 1011.4
20260506124006 45 315 2.0 4.0 0.00 1.30 0.42 87 1011.8
20260506123510 45 322 2.0 4.0 0.00 1.30 0.42 87 1011.7
20260506123015 45 300 0.0 3.0 0.00 1.30 0.42 88 1011.7
20260506122504 45 321 0.0 3.0 0.00 1.30 0.42 89 1011.6
20260506122008 45 312 0.0 4.0 0.00 1.30 0.42 89 1011.5
20260506121506 45 322 1.0 4.0 0.00 1.30 0.42 89 1011.5
20260506121005 45 328 1.0 2.0 0.00 1.30 0.42 89 1011.2
20260506120504 45 309 1.0 3.0 0.00 1.30 0.42 90 1011.0
20260506120022 44 344 1.0 3.0 0.00 1.30 0.42 89 1010.8
20260506115509 44 307 1.0 6.0 0.00 1.30 0.42 90 1010.6
20260506115006 44 14 1.0 6.0 0.00 1.30 0.42 90 1010.6
20260506114513 44 326 2.0 5.0 0.00 1.30 0.42 90 1010.4
20260506114007 44 342 1.0 4.0 0.00 1.30 0.42 91 1010.3
20260506113507 44 320 1.0 3.0 0.00 1.30 0.42 91 1010.4
20260506113015 44 45 0.0 3.0 0.00 1.30 0.42 91 1010.3
20260506112509 44 45 0.0 3.0 0.00 1.30 0.42 91 1010.4
20260506112007 44 312 1.0 3.0 0.00 1.30 0.42 90 1010.5
20260506111517 44 283 1.0 3.0 0.00 1.30 0.42 90 1010.6
20260506111004 44 323 1.0 3.0 0.00 1.30 0.42 90 1010.3
20260506110504 44 323 1.0 3.0 0.00 1.30 0.42 90 1010.1
20260506110008 44 339 2.0 5.0 0.00 1.30 0.42 89 1009.9
20260506105505 44 336 3.0 6.0 0.00 1.30 0.42 89 1010.0
20260506105006 44 345 3.0 6.0 0.00 1.30 0.42 90 1009.9
20260506104510 44 310 2.0 7.0 0.00 1.30 0.42 90 1009.7
20260506104012 44 338 3.0 9.0 0.00 1.30 0.42 91 1009.4
20260506103508 44 22 1.0 9.0 0.00 1.31 0.42 91 1009.4
20260506103018 44 32 3.0 9.0 0.00 1.31 0.42 92 1009.2
20260506102507 44 333 2.0 8.0 0.00 1.32 0.42 92 1009.6
20260506102010 44 329 3.0 8.0 0.00 1.32 0.42 92 1009.8
20260506101518 44 316 1.0 3.0 0.00 1.32 0.42 93 1009.7
20260506101005 44 318 0.0 5.0 0.00 1.32 0.42 93 1009.6
20260506100511 44 315 2.0 5.0 0.00 1.33 0.42 93 1009.5
20260506100016 44 333 2.0 5.0 0.00 1.35 0.42 93 1009.5
20260506095506 44 319 2.0 5.0 0.00 1.35 0.42 94 1009.3
20260506095002 44 306 1.0 3.0 0.00 1.35 0.42 94 1009.3
20260506094506 44 312 0.0 3.0 0.00 1.35 0.42 94 1009.1
20260506094005 44 327 1.0 3.0 0.00 1.35 0.42 93 1009.0
20260506093507 44 352 0.0 3.0 0.00 1.35 0.42 94 1008.6
20260506093014 44 353 1.0 3.0 0.00 1.36 0.42 94 1008.3
20260506092505 44 60 0.0 0.0 0.01 1.36 0.42 94 1008.3
20260506092007 44 360 0.0 4.0 0.01 1.37 0.42 94 1008.8
20260506091519 44 17 0.0 4.0 0.01 1.38 0.42 94 1008.9
20260506091007 44 325 0.0 4.0 0.01 1.40 0.42 94 1008.9
20260506090507 44 312 1.0 4.0 0.02 1.41 0.42 94 1008.8
20260506090023 44 3 1.0 4.0 0.02 1.41 0.42 94 1008.5
20260506085507 44 335 0.0 7.0 0.02 1.41 0.42 94 1008.7
20260506085005 44 23 2.0 7.0 0.03 1.41 0.42 94 1008.8
20260506084532 44 321 1.0 9.0 0.04 1.41 0.42 94 1008.7
20260506084011 44 338 3.0 9.0 0.05 1.41 0.42 94 1008.8
20260506083508 44 88 2.0 8.0 0.06 1.41 0.42 95 1008.8
20260506083012 44 302 4.0 7.0 0.07 1.41 0.42 95 1008.8
20260506082507 44 326 2.0 8.0 0.07 1.40 0.41 95 1008.7
20260506082006 44 25 3.0 8.0 0.07 1.40 0.41 95 1008.7
20260506081517 44 255 2.0 7.0 0.07 1.40 0.41 95 1008.7
20260506081009 44 319 1.0 7.0 0.07 1.40 0.41 95 1008.8
20260506080507 44 326 4.0 7.0 0.07 1.39 0.40 95 1008.8
20260506073508 45 357 3.0 6.0 0.05 1.35 0.36 95 1008.7
20260506073024 45 315 2.0 6.0 0.04 1.34 0.35 95 1008.8
20260506072507 45 349 3.0 5.0 0.03 1.33 0.34 95 1008.6
20260506072014 45 330 3.0 7.0 0.04 1.33 0.34 95 1008.7
20260506071523 45 329 2.0 7.0 0.05 1.33 0.34 95 1008.5
20260506071008 45 3 2.0 7.0 0.07 1.33 0.34 95 1008.3
20260506070507 45 326 2.0 7.0 0.07 1.32 0.33 95 1008.1
20260506062510 45 319 2.0 5.0 0.13 1.30 0.31 95 1008.0
20260506062009 45 359 2.0 5.0 0.13 1.29 0.30 95 1008.0
20260506061527 45 49 2.0 4.0 0.13 1.28 0.29 95 1008.2
20260506061008 45 51 0.0 5.0 0.13 1.26 0.27 95 1008.2
20260506060507 45 36 1.0 5.0 0.14 1.25 0.26 95 1008.5
20260506051007 47 321 3.0 9.0 0.13 1.13 0.14 94 1008.7
20260506051002 47 334 3.0 9.0 0.13 1.13 0.14 94 1008.7
20260506050502 47 319 3.0 8.0 0.12 1.11 0.12 95 1008.6
20260506045006 48 342 1.0 11.0 0.09 1.08 0.09 95 1008.5
20260506044524 48 319 3.0 11.0 0.08 1.07 0.08 95 1008.1
20260506044004 48 337 4.0 11.0 0.08 1.07 0.08 95 1008.1
20260506043510 48 331 3.0 6.0 0.07 1.05 0.07 95 1008.2
20260506043022 48 334 2.0 6.0 0.07 1.05 0.07 96 1008.3
20260506042506 49 326 2.0 5.0 0.05 1.04 0.05 96 1008.4
20260506042008 49 340 2.0 5.0 0.04 1.03 0.04 95 1008.5
20260506041504 49 319 2.0 4.0 0.03 1.02 0.03 95 1008.5
20260506041005 49 323 1.0 3.0 0.01 1.00 0.01 96 1008.3
20260506040504 49 329 1.0 4.0 0.00 0.99 0.00 95 1008.2
20260506040008 49 338 2.0 4.0 0.00 0.99 0.00 95 1008.1
20260506035504 49 350 1.0 4.0 0.01 0.99 0.99 95 1008.0
20260506035004 49 42 1.0 5.0 0.01 0.99 0.99 95 1008.0
20260506034513 49 18 2.0 5.0 0.02 0.99 0.99 95 1007.9
20260506034008 49 60 2.0 9.0 0.03 0.99 0.99 95 1008.0
20260506033507 49 69 3.0 9.0 0.03 0.99 0.99 95 1008.0
20260506033015 49 316 1.0 4.0 0.05 0.99 0.99 95 1008.0
20260506032507 49 54 1.0 4.0 0.06 0.99 0.99 95 1008.0
20260506032008 49 70 0.0 7.0 0.08 0.99 0.99 95 1008.1
20260506031522 49 20 4.0 7.0 0.10 0.99 0.99 95 1008.0
20260506031009 50 37 1.0 6.0 0.12 0.99 0.99 95 1008.3
20260506030510 50 106 2.0 8.0 0.13 0.99 0.99 95 1008.3
20260506030024 50 64 3.0 8.0 0.14 0.99 0.99 95 1008.2
20260506025502 50 43 1.0 6.0 0.13 0.98 0.98 95 1008.5
20260506025004 50 22 2.0 6.0 0.14 0.98 0.98 95 1008.5
20260506024515 50 18 3.0 5.0 0.14 0.97 0.97 95 1008.7
20260506024005 50 331 1.0 5.0 0.13 0.96 0.96 95 1008.9
20260506023504 50 327 1.0 4.0 0.15 0.96 0.96 95 1008.9
20260506023018 50 336 2.0 5.0 0.15 0.94 0.94 95 1008.9
20260506022508 50 25 2.0 5.0 0.16 0.93 0.93 95 1008.9
20260506022008 50 325 1.0 6.0 0.16 0.91 0.91 95 1009.0
20260506021520 50 346 2.0 7.0 0.15 0.89 0.89 95 1009.1
20260506021011 50 352 3.0 7.0 0.15 0.87 0.87 95 1009.1
20260506020512 51 336 1.0 6.0 0.17 0.86 0.86 95 1009.1
20260506020022 51 47 3.0 6.0 0.17 0.85 0.85 95 1008.8
20260506015508 51 323 2.0 6.0 0.19 0.85 0.85 95 1008.7
20260506015007 51 345 1.0 6.0 0.20 0.84 0.84 95 1008.6
20260506014528 51 16 1.0 7.0 0.19 0.83 0.83 95 1008.4
20260506014003 52 298 4.0 7.0 0.20 0.83 0.83 94 1008.2
20260506013506 53 314 1.0 6.0 0.19 0.81 0.81 95 1008.1
20260506013014 53 357 2.0 6.0 0.19 0.79 0.79 94 1008.2
20260506012504 53 342 2.0 6.0 0.18 0.77 0.77 94 1008.3
20260506012008 54 345 2.0 6.0 0.17 0.75 0.75 93 1008.3
20260506011535 55 328 3.0 7.0 0.18 0.74 0.74 93 1008.4
20260506011010 56 326 3.0 7.0 0.17 0.72 0.72 92 1008.2
20260506010506 58 276 2.0 7.0 0.14 0.69 0.69 93 1008.2
20260506010022 59 341 2.0 6.0 0.14 0.68 0.68 95 1008.0
20260506005508 59 267 3.0 6.0 0.13 0.66 0.66 95 1007.8
20260506005009 59 262 2.0 6.0 0.12 0.64 0.64 95 1007.9
20260506004536 59 264 1.0 7.0 0.14 0.64 0.64 95 1007.8
20260506004012 59 240 3.0 7.0 0.13 0.63 0.63 95 1007.8
20260506003511 59 136 3.0 6.0 0.13 0.62 0.62 95 1007.9
20260506003029 59 205 2.0 6.0 0.12 0.60 0.60 95 1007.8
20260506002507 59 206 4.0 6.0 0.11 0.58 0.58 95 1007.8
20260506002005 59 227 3.0 7.0 0.10 0.58 0.58 95 1007.7
20260506001510 59 189 4.0 7.0 0.09 0.56 0.56 95 1007.6